RPC6432 RPLI-RPMZ

Flight info

Callsign RPC6432
Flight time 4h 29m
Altitude 6000
Route MELAN2P MELAN M646 SANRO B591 LUBAN/N0182F070 W3 SAJ A461 TINDO TINDO1W
Aircraft BE36/L-DFGLOY/S

Departure

Time 2026-04-21 08:30
Airport Laoag International Airport (RPLI)

Arrival

Time 2026-04-21 12:59
Airport Zamboanga International Airport (RPMZ)
Time Latitude Longitude Altitude Speed Heading
2026-04-21 08:13 18.18080 120.53328 19 ft 0 kts 71°
2026-04-21 08:25 18.18082 120.53331 19 ft 1 kts 34°
2026-04-21 08:26 18.18099 120.53310 19 ft 8 kts 288°
2026-04-21 08:26 18.18104 120.53254 20 ft 1 kts 275°
2026-04-21 08:27 18.18107 120.53223 20 ft 11 kts 274°
2026-04-21 08:28 18.18081 120.53155 22 ft 16 kts 192°
2026-04-21 08:28 18.17927 120.53139 23 ft 29 kts 185°
2026-04-21 08:28 18.17699 120.53117 23 ft 36 kts 184°
2026-04-21 08:28 18.17474 120.53094 24 ft 25 kts 185°
2026-04-21 08:29 18.17366 120.53098 24 ft 7 kts 218°
2026-04-21 08:29 18.17370 120.53084 23 ft 3 kts
2026-04-21 08:29 18.17547 120.53101 24 ft 55 kts
2026-04-21 08:29 18.18075 120.53160 50 ft 93 kts
2026-04-21 08:30 18.18759 120.53274 206 ft 105 kts
2026-04-21 08:30 18.19500 120.53374 422 ft 111 kts
2026-04-21 08:30 18.20277 120.53509 646 ft 115 kts
2026-04-21 08:30 18.21076 120.53656 901 ft 119 kts
2026-04-21 08:31 18.21906 120.53806 1137 ft 123 kts
2026-04-21 08:31 18.22700 120.53729 1441 ft 112 kts 330°
2026-04-21 08:31 18.23122 120.53077 1578 ft 117 kts 272°
2026-04-21 08:31 18.22746 120.52326 1740 ft 125 kts 217°
2026-04-21 08:32 18.21872 120.52175 1863 ft 135 kts 178°
2026-04-21 08:32 18.20928 120.52241 2031 ft 137 kts 179°
2026-04-21 08:32 18.19971 120.52296 2170 ft 139 kts 179°
2026-04-21 08:32 18.19000 120.52348 2328 ft 140 kts 178°
2026-04-21 08:33 18.18030 120.52399 2482 ft 140 kts 179°
2026-04-21 08:33 18.17064 120.52444 2685 ft 137 kts 178°
2026-04-21 08:33 18.16118 120.52482 2866 ft 136 kts 178°
2026-04-21 08:33 18.15171 120.52513 3036 ft 135 kts 178°
2026-04-21 08:34 18.14231 120.52517 3199 ft 134 kts 180°
2026-04-21 08:34 18.13305 120.52500 3376 ft 133 kts 182°
2026-04-21 08:34 18.12383 120.52416 3554 ft 131 kts 186°
2026-04-21 08:34 18.11472 120.52327 3696 ft 133 kts 185°
2026-04-21 08:35 18.10561 120.52238 3872 ft 131 kts 185°
2026-04-21 08:35 18.09653 120.52142 4029 ft 131 kts 186°
2026-04-21 08:35 18.08749 120.52039 4188 ft 131 kts 185°
2026-04-21 08:35 18.07842 120.51971 4344 ft 130 kts 183°
2026-04-21 08:36 18.06942 120.51907 4528 ft 129 kts 184°
2026-04-21 08:36 18.06052 120.51827 4705 ft 128 kts 185°
2026-04-21 08:36 18.05165 120.51737 4866 ft 128 kts 185°
2026-04-21 08:36 18.04277 120.51652 5027 ft 128 kts 185°
2026-04-21 08:37 18.03389 120.51573 5189 ft 128 kts 185°
2026-04-21 08:37 18.02501 120.51494 5349 ft 127 kts 185°
2026-04-21 08:37 18.01621 120.51414 5505 ft 127 kts 185°
2026-04-21 08:37 18.00744 120.51332 5660 ft 127 kts 185°
2026-04-21 08:38 17.99866 120.51250 5817 ft 126 kts 185°
2026-04-21 08:38 17.98993 120.51171 5972 ft 126 kts 185°
2026-04-21 08:38 17.98122 120.51092 6103 ft 127 kts 185°
2026-04-21 08:38 17.97219 120.51009 6163 ft 134 kts 185°
2026-04-21 08:39 17.96261 120.50919 6164 ft 142 kts 185°
2026-04-21 08:39 17.95269 120.50828 6141 ft 147 kts 185°
2026-04-21 08:39 17.94233 120.50735 6105 ft 152 kts 185°
2026-04-21 08:39 17.93172 120.50639 6063 ft 155 kts 185°
2026-04-21 08:40 17.92093 120.50540 6031 ft 156 kts 185°
2026-04-21 08:40 17.91007 120.50439 6016 ft 157 kts 185°
2026-04-21 08:40 17.89919 120.50339 6005 ft 157 kts 185°
2026-04-21 08:40 17.88832 120.50240 6002 ft 157 kts 185°
2026-04-21 08:41 17.87747 120.50141 6000 ft 156 kts 185°
2026-04-21 08:41 17.86666 120.50041 6000 ft 156 kts 185°
2026-04-21 08:41 17.85587 120.49941 6000 ft 156 kts 185°
2026-04-21 08:41 17.84507 120.49844 5999 ft 155 kts 185°
2026-04-21 08:42 17.83430 120.49745 6000 ft 155 kts 185°
2026-04-21 08:42 17.82353 120.49646 5999 ft 155 kts 185°
2026-04-21 08:42 17.81312 120.49510 5998 ft 155 kts 189°
2026-04-21 08:42 17.80246 120.49342 5999 ft 155 kts 188°
2026-04-21 08:43 17.79179 120.49202 6000 ft 155 kts 187°
2026-04-21 08:43 17.78109 120.49070 5999 ft 155 kts 187°
2026-04-21 08:43 17.77042 120.48928 6000 ft 155 kts 187°
2026-04-21 08:43 17.75975 120.48779 5999 ft 155 kts 187°
2026-04-21 08:44 17.74907 120.48631 5998 ft 155 kts 187°
2026-04-21 08:44 17.73838 120.48489 5999 ft 155 kts 187°
2026-04-21 08:44 17.72767 120.48346 5998 ft 155 kts 187°
2026-04-21 08:44 17.71697 120.48201 6000 ft 155 kts 187°
2026-04-21 08:45 17.70626 120.48055 6002 ft 155 kts 187°
2026-04-21 08:45 17.69556 120.47910 6002 ft 155 kts 187°
2026-04-21 08:45 17.68497 120.47768 6000 ft 156 kts 187°
2026-04-21 08:45 17.67414 120.47622 6000 ft 157 kts 187°
2026-04-21 08:46 17.66327 120.47475 5999 ft 158 kts 187°
2026-04-21 08:46 17.65233 120.47327 6005 ft 159 kts 187°
2026-04-21 08:46 17.64134 120.47178 6004 ft 160 kts 187°
2026-04-21 08:46 17.63028 120.47029 6006 ft 160 kts 187°
2026-04-21 08:47 17.61920 120.46879 6004 ft 161 kts 187°
2026-04-21 08:47 17.60808 120.46729 6002 ft 161 kts 187°
2026-04-21 08:47 17.59696 120.46579 5998 ft 161 kts 187°
2026-04-21 08:47 17.58585 120.46429 5999 ft 161 kts 187°
2026-04-21 08:48 17.57473 120.46279 5998 ft 161 kts 187°
2026-04-21 08:48 17.56362 120.46130 6000 ft 161 kts 187°
2026-04-21 08:48 17.55251 120.45979 6000 ft 161 kts 187°
2026-04-21 08:48 17.54138 120.45829 5997 ft 161 kts 187°
2026-04-21 08:49 17.53025 120.45679 5998 ft 161 kts 187°
2026-04-21 08:49 17.51913 120.45530 5998 ft 161 kts 187°
2026-04-21 08:49 17.50805 120.45380 5997 ft 161 kts 187°
2026-04-21 08:49 17.49697 120.45229 5997 ft 160 kts 187°
2026-04-21 08:50 17.48591 120.45080 5999 ft 160 kts 187°
2026-04-21 08:50 17.47482 120.44932 6000 ft 161 kts 187°
2026-04-21 08:50 17.46373 120.44783 6004 ft 161 kts 187°
2026-04-21 08:50 17.45261 120.44632 6005 ft 161 kts 187°
2026-04-21 08:51 17.44162 120.44483 6003 ft 161 kts 187°
2026-04-21 08:51 17.43048 120.44335 6000 ft 161 kts 187°
2026-04-21 08:51 17.41936 120.44184 5999 ft 161 kts 187°
2026-04-21 08:51 17.40825 120.44035 5998 ft 161 kts 187°
2026-04-21 08:52 17.39714 120.43885 5998 ft 161 kts 187°
2026-04-21 08:52 17.38603 120.43736 5998 ft 161 kts 187°
2026-04-21 08:52 17.37495 120.43587 5999 ft 161 kts 187°
2026-04-21 08:52 17.36384 120.43436 5999 ft 161 kts 187°
2026-04-21 08:53 17.35277 120.43287 5999 ft 161 kts 187°
2026-04-21 08:53 17.34167 120.43138 5999 ft 161 kts 187°
2026-04-21 08:53 17.33059 120.42990 5999 ft 161 kts 187°
2026-04-21 08:53 17.31949 120.42840 6000 ft 161 kts 187°
2026-04-21 08:54 17.30837 120.42689 6003 ft 161 kts 187°
2026-04-21 08:54 17.29724 120.42540 6002 ft 161 kts 187°
2026-04-21 08:54 17.28608 120.42390 6003 ft 162 kts 187°
2026-04-21 08:54 17.27493 120.42241 6001 ft 162 kts 187°
2026-04-21 08:55 17.26377 120.42089 6003 ft 162 kts 187°
2026-04-21 08:55 17.25422 120.41971 6007 ft 162 kts 186°
2026-04-21 08:55 17.24298 120.41848 6004 ft 162 kts 185°
2026-04-21 08:55 17.23175 120.41721 6002 ft 162 kts 186°
2026-04-21 08:56 17.22053 120.41583 6002 ft 163 kts 186°
2026-04-21 08:56 17.20930 120.41447 6002 ft 163 kts 186°
2026-04-21 08:56 17.19803 120.41318 5998 ft 163 kts 186°
2026-04-21 08:56 17.18678 120.41187 5999 ft 163 kts 186°
2026-04-21 08:57 17.17554 120.41053 5998 ft 162 kts 186°
2026-04-21 08:57 17.16431 120.40919 5995 ft 162 kts 186°
2026-04-21 08:57 17.15310 120.40788 5997 ft 162 kts 186°
2026-04-21 08:57 17.14205 120.40659 5998 ft 162 kts 186°
2026-04-21 08:58 17.13089 120.40528 6015 ft 161 kts 186°
2026-04-21 08:58 17.11984 120.40398 6046 ft 159 kts 186°
2026-04-21 08:58 17.10894 120.40267 6083 ft 155 kts 185°
2026-04-21 08:58 17.09823 120.40145 6124 ft 155 kts 185°
2026-04-21 08:59 17.08757 120.40019 6166 ft 154 kts 185°
2026-04-21 08:59 17.07697 120.39895 6207 ft 152 kts 185°
2026-04-21 08:59 17.06648 120.39772 6252 ft 151 kts 185°
2026-04-21 08:59 17.05597 120.39644 6276 ft 153 kts 185°
2026-04-21 09:00 17.04538 120.39519 6290 ft 155 kts 186°
2026-04-21 09:00 17.03455 120.39398 6296 ft 158 kts 185°
2026-04-21 09:00 17.02365 120.39269 6296 ft 158 kts 186°
2026-04-21 09:00 17.01268 120.39135 6297 ft 161 kts 185°
2026-04-21 09:01 17.00152 120.39003 6300 ft 162 kts 185°
2026-04-21 09:01 16.99032 120.38882 6303 ft 161 kts 185°
2026-04-21 09:01 16.97911 120.38744 6303 ft 164 kts 186°
2026-04-21 09:01 16.96783 120.38612 6302 ft 163 kts 185°
2026-04-21 09:02 16.95876 120.38511 6299 ft 164 kts 185°
2026-04-21 09:02 16.94749 120.38374 6295 ft 168 kts 185°
2026-04-21 09:02 16.93595 120.38239 6288 ft 166 kts 185°
2026-04-21 09:03 16.91314 120.37970 6230 ft 169 kts 185°
2026-04-21 09:03 16.90141 120.37835 6194 ft 170 kts 186°
2026-04-21 09:03 16.88966 120.37697 6155 ft 170 kts 185°
2026-04-21 09:03 16.87802 120.37558 6134 ft 168 kts 186°
2026-04-21 09:04 16.86655 120.37424 6123 ft 165 kts 185°
2026-04-21 09:04 16.85512 120.37290 6117 ft 165 kts 185°
2026-04-21 09:04 16.84370 120.37157 6115 ft 165 kts 185°
2026-04-21 09:04 16.83228 120.37023 6115 ft 165 kts 185°
2026-04-21 09:05 16.82086 120.36889 6115 ft 165 kts 185°
2026-04-21 09:05 16.80943 120.36756 6115 ft 165 kts 185°
2026-04-21 09:05 16.79799 120.36621 6116 ft 165 kts 185°
2026-04-21 09:05 16.78656 120.36485 6110 ft 166 kts 185°
2026-04-21 09:06 16.77514 120.36353 6104 ft 165 kts 185°
2026-04-21 09:06 16.76372 120.36221 6110 ft 165 kts 185°
2026-04-21 09:06 16.75233 120.36088 6108 ft 165 kts 185°
2026-04-21 09:06 16.74096 120.35953 6108 ft 164 kts 185°
2026-04-21 09:07 16.72962 120.35820 6109 ft 164 kts 185°
2026-04-21 09:07 16.71828 120.35718 6109 ft 163 kts 181°
2026-04-21 09:07 16.70692 120.35664 6098 ft 163 kts 181°
2026-04-21 09:07 16.69560 120.35596 6109 ft 163 kts 182°
2026-04-21 09:08 16.68431 120.35508 6110 ft 163 kts 183°
2026-04-21 09:08 16.67311 120.35423 6113 ft 163 kts 182°
2026-04-21 09:08 16.66164 120.35346 6111 ft 163 kts 182°
2026-04-21 09:08 16.65033 120.35273 6114 ft 163 kts 182°
2026-04-21 09:09 16.63913 120.35196 6116 ft 163 kts 182°
2026-04-21 09:09 16.62776 120.35116 6114 ft 164 kts 182°
2026-04-21 09:09 16.61638 120.35038 6115 ft 163 kts 182°
2026-04-21 09:09 16.60500 120.34960 6116 ft 164 kts 182°
2026-04-21 09:10 16.59362 120.34883 6114 ft 164 kts 182°
2026-04-21 09:10 16.58220 120.34805 6113 ft 164 kts 182°
2026-04-21 09:10 16.57081 120.34728 6108 ft 164 kts 182°
2026-04-21 09:10 16.55942 120.34650 6110 ft 164 kts 182°
2026-04-21 09:11 16.54800 120.34569 6109 ft 164 kts 182°
2026-04-21 09:11 16.53659 120.34490 6111 ft 164 kts 182°
2026-04-21 09:11 16.52524 120.34415 6104 ft 163 kts 182°
2026-04-21 09:11 16.51390 120.34339 6107 ft 164 kts 182°
2026-04-21 09:12 16.50253 120.34261 6107 ft 163 kts 182°
2026-04-21 09:12 16.49118 120.34181 6109 ft 164 kts 182°
2026-04-21 09:12 16.47984 120.34104 6103 ft 163 kts 182°
2026-04-21 09:12 16.46853 120.34027 6112 ft 163 kts 182°
2026-04-21 09:13 16.45718 120.33952 6100 ft 164 kts 183°
2026-04-21 09:13 16.44573 120.33874 6069 ft 165 kts 183°
2026-04-21 09:13 16.43419 120.33790 6034 ft 167 kts 183°
2026-04-21 09:13 16.42504 120.33726 6018 ft 167 kts 183°
2026-04-21 09:14 16.41342 120.33650 6008 ft 167 kts 183°
2026-04-21 09:14 16.40184 120.33572 6004 ft 166 kts 183°
2026-04-21 09:14 16.39032 120.33494 6001 ft 166 kts 183°
2026-04-21 09:14 16.37885 120.33414 6000 ft 165 kts 183°
2026-04-21 09:15 16.36742 120.33336 5999 ft 165 kts 183°
2026-04-21 09:15 16.35600 120.33258 5999 ft 164 kts 183°
2026-04-21 09:15 16.34845 120.33207 5998 ft 164 kts 183°
2026-04-21 09:15 16.33704 120.33129 5998 ft 164 kts 183°
2026-04-21 09:16 16.32565 120.33051 5998 ft 164 kts 183°
2026-04-21 09:16 16.31427 120.32973 5999 ft 164 kts 183°
2026-04-21 09:16 16.30291 120.32896 5999 ft 163 kts 183°
2026-04-21 09:16 16.29156 120.32819 5998 ft 163 kts 183°
2026-04-21 09:17 16.28022 120.32741 5999 ft 163 kts 183°
2026-04-21 09:17 16.26887 120.32663 5997 ft 163 kts 183°
2026-04-21 09:17 16.25754 120.32586 6000 ft 163 kts 183°
2026-04-21 09:17 16.24620 120.32509 6000 ft 163 kts 183°
2026-04-21 09:18 16.23486 120.32432 6000 ft 163 kts 183°
2026-04-21 09:18 16.22355 120.32354 6000 ft 163 kts 183°
2026-04-21 09:18 16.21224 120.32277 6000 ft 163 kts 183°
2026-04-21 09:18 16.20092 120.32200 6000 ft 163 kts 183°
2026-04-21 09:19 16.18960 120.32123 6001 ft 163 kts 183°
2026-04-21 09:19 16.17825 120.32046 6003 ft 164 kts 183°
2026-04-21 09:19 16.16687 120.31968 6001 ft 164 kts 183°
2026-04-21 09:19 16.15550 120.31891 6001 ft 164 kts 183°
2026-04-21 09:20 16.14413 120.31814 6001 ft 164 kts 183°
2026-04-21 09:20 16.13278 120.31736 6000 ft 164 kts 183°
2026-04-21 09:20 16.12143 120.31658 5999 ft 164 kts 183°
2026-04-21 09:20 16.11004 120.31580 5999 ft 164 kts 183°
2026-04-21 09:21 16.09866 120.31504 6000 ft 164 kts 183°
2026-04-21 09:21 16.08729 120.31426 5999 ft 164 kts 183°
2026-04-21 09:21 16.07590 120.31349 5997 ft 164 kts 183°
2026-04-21 09:21 16.06453 120.31272 5999 ft 164 kts 183°
2026-04-21 09:22 16.05317 120.31194 5999 ft 163 kts 183°
2026-04-21 09:22 16.04182 120.31116 5999 ft 164 kts 183°
2026-04-21 09:22 16.03046 120.31039 6001 ft 163 kts 183°
2026-04-21 09:22 16.01921 120.30962 6002 ft 160 kts 183°
2026-04-21 09:23 16.00812 120.30887 6004 ft 160 kts 183°
2026-04-21 09:23 15.99715 120.30814 6008 ft 160 kts 183°
2026-04-21 09:23 15.98593 120.30737 6011 ft 162 kts 183°
2026-04-21 09:23 15.97472 120.30659 6032 ft 161 kts 183°
2026-04-21 09:24 15.96359 120.30583 6062 ft 160 kts 183°
2026-04-21 09:24 15.95251 120.30508 6087 ft 159 kts 183°
2026-04-21 09:24 15.94149 120.30434 6096 ft 159 kts 183°
2026-04-21 09:24 15.93041 120.30359 6100 ft 160 kts 183°
2026-04-21 09:25 15.91928 120.30283 6109 ft 161 kts 183°
2026-04-21 09:25 15.90809 120.30207 6111 ft 162 kts 183°
2026-04-21 09:25 15.89685 120.30130 6112 ft 162 kts 183°
2026-04-21 09:25 15.88558 120.30054 6112 ft 163 kts 183°
2026-04-21 09:26 15.87429 120.29977 6125 ft 162 kts 183°
2026-04-21 09:26 15.86307 120.29901 6154 ft 161 kts 183°
2026-04-21 09:26 15.85195 120.29825 6190 ft 160 kts 183°
2026-04-21 09:26 15.84092 120.29750 6230 ft 158 kts 183°
2026-04-21 09:27 15.82997 120.29676 6267 ft 157 kts 183°
2026-04-21 09:27 15.81903 120.29602 6288 ft 158 kts 183°
2026-04-21 09:27 15.80801 120.29527 6298 ft 160 kts 183°
2026-04-21 09:27 15.79687 120.29452 6302 ft 161 kts 183°
2026-04-21 09:28 15.78569 120.29375 6305 ft 162 kts 183°
2026-04-21 09:28 15.77443 120.29299 6307 ft 162 kts 183°
2026-04-21 09:28 15.76315 120.29222 6307 ft 163 kts 183°
2026-04-21 09:28 15.75181 120.29146 6307 ft 163 kts 183°
2026-04-21 09:29 15.74044 120.29068 6307 ft 164 kts 183°
2026-04-21 09:29 15.72907 120.28990 6306 ft 164 kts 183°
2026-04-21 09:29 15.71768 120.28914 6305 ft 164 kts 183°
2026-04-21 09:29 15.70626 120.28837 6306 ft 164 kts 183°
2026-04-21 09:30 15.69485 120.28758 6305 ft 164 kts 183°
2026-04-21 09:30 15.68344 120.28680 6308 ft 165 kts 182°
2026-04-21 09:30 15.67196 120.28605 6310 ft 165 kts 183°
2026-04-21 09:30 15.66046 120.28527 6310 ft 166 kts 183°
2026-04-21 09:31 15.64896 120.28448 6307 ft 166 kts 183°
2026-04-21 09:31 15.63745 120.28369 6309 ft 166 kts 183°
2026-04-21 09:31 15.62595 120.28291 6309 ft 165 kts 183°
2026-04-21 09:31 15.61445 120.28214 6307 ft 166 kts 182°
2026-04-21 09:32 15.60310 120.28137 6304 ft 166 kts 183°
2026-04-21 09:32 15.59162 120.28059 6300 ft 165 kts 183°
2026-04-21 09:32 15.58019 120.27981 6306 ft 165 kts 183°
2026-04-21 09:32 15.56872 120.27904 6305 ft 165 kts 183°
2026-04-21 09:33 15.55722 120.27826 6302 ft 166 kts 183°
2026-04-21 09:33 15.54571 120.27747 6299 ft 166 kts 183°
2026-04-21 09:33 15.53419 120.27670 6296 ft 166 kts 183°
2026-04-21 09:33 15.52269 120.27591 6293 ft 165 kts 182°
2026-04-21 09:34 15.51121 120.27514 6291 ft 165 kts 182°
2026-04-21 09:34 15.49977 120.27437 6293 ft 165 kts 183°
2026-04-21 09:34 15.48833 120.27359 6295 ft 165 kts 182°
2026-04-21 09:34 15.47690 120.27282 6291 ft 164 kts 182°
2026-04-21 09:35 15.46551 120.27204 6290 ft 164 kts 182°
2026-04-21 09:35 15.45414 120.27127 6287 ft 163 kts 183°
2026-04-21 09:35 15.44280 120.27050 6292 ft 163 kts 182°
2026-04-21 09:35 15.43147 120.26974 6293 ft 163 kts 183°
2026-04-21 09:36 15.42014 120.26897 6285 ft 162 kts 183°
2026-04-21 09:36 15.40887 120.26821 6295 ft 163 kts 183°
2026-04-21 09:36 15.39757 120.26744 6301 ft 163 kts 182°
2026-04-21 09:36 15.38619 120.26667 6304 ft 164 kts 182°
2026-04-21 09:37 15.37476 120.26590 6305 ft 165 kts 182°
2026-04-21 09:37 15.36329 120.26514 6306 ft 165 kts 182°
2026-04-21 09:37 15.35179 120.26436 6295 ft 165 kts 182°
2026-04-21 09:37 15.34031 120.26357 6297 ft 165 kts 182°
2026-04-21 09:38 15.32884 120.26279 6299 ft 165 kts 182°
2026-04-21 09:38 15.31734 120.26202 6301 ft 166 kts 182°
2026-04-21 09:38 15.30584 120.26124 6297 ft 166 kts 182°
2026-04-21 09:38 15.29435 120.26046 6298 ft 165 kts 182°
2026-04-21 09:39 15.28288 120.25968 6300 ft 166 kts 182°
2026-04-21 09:39 15.27138 120.25891 6299 ft 165 kts 182°
2026-04-21 09:39 15.25990 120.25815 6295 ft 165 kts 182°
2026-04-21 09:39 15.24841 120.25737 6295 ft 165 kts 182°
2026-04-21 09:40 15.23695 120.25658 6293 ft 165 kts 182°
2026-04-21 09:40 15.22547 120.25580 6293 ft 166 kts 182°
2026-04-21 09:40 15.21399 120.25503 6292 ft 165 kts 182°
2026-04-21 09:40 15.20256 120.25425 6293 ft 165 kts 182°
2026-04-21 09:41 15.19113 120.25348 6293 ft 164 kts 182°
2026-04-21 09:41 15.17972 120.25274 6294 ft 164 kts 182°
2026-04-21 09:41 15.16846 120.25198 6295 ft 164 kts 182°
2026-04-21 09:41 15.15705 120.25118 6295 ft 164 kts 182°
2026-04-21 09:42 15.14565 120.25041 6295 ft 164 kts 182°
2026-04-21 09:42 15.13425 120.24965 6295 ft 164 kts 182°
2026-04-21 09:42 15.12285 120.24888 6295 ft 164 kts 182°
2026-04-21 09:42 15.11130 120.24811 6297 ft 164 kts 182°
2026-04-21 09:43 15.10002 120.24734 6298 ft 165 kts 182°
2026-04-21 09:43 15.08857 120.24656 6294 ft 165 kts 182°
2026-04-21 09:43 15.07714 120.24580 6281 ft 164 kts 182°
2026-04-21 09:43 15.06578 120.24503 6283 ft 163 kts 182°
2026-04-21 09:44 15.05444 120.24426 6283 ft 164 kts 182°
2026-04-21 09:44 15.04308 120.24350 6286 ft 164 kts 182°
2026-04-21 09:44 15.03173 120.24273 6287 ft 164 kts 182°
2026-04-21 09:44 15.02036 120.24196 6288 ft 164 kts 181°
2026-04-21 09:45 15.00898 120.24119 6287 ft 164 kts 181°
2026-04-21 09:45 14.99761 120.24044 6286 ft 164 kts 181°
2026-04-21 09:45 14.98624 120.23968 6288 ft 164 kts 181°
2026-04-21 09:45 14.97485 120.23891 6287 ft 164 kts 182°
2026-04-21 09:46 14.96347 120.23812 6288 ft 164 kts 182°
2026-04-21 09:46 14.95211 120.23736 6290 ft 164 kts 181°
2026-04-21 09:46 14.94071 120.23661 6290 ft 164 kts 181°
2026-04-21 09:46 14.92937 120.23585 6287 ft 164 kts 181°
2026-04-21 09:47 14.91794 120.23506 6291 ft 164 kts 182°
2026-04-21 09:47 14.90652 120.23429 6291 ft 165 kts 181°
2026-04-21 09:47 14.89509 120.23353 6288 ft 164 kts 182°
2026-04-21 09:47 14.88368 120.23276 6287 ft 164 kts 181°
2026-04-21 09:48 14.87226 120.23197 6288 ft 165 kts 181°
2026-04-21 09:48 14.86083 120.23121 6286 ft 164 kts 181°
2026-04-21 09:48 14.84943 120.23047 6285 ft 164 kts 181°
2026-04-21 09:48 14.83806 120.22970 6284 ft 164 kts 181°
2026-04-21 09:49 14.82667 120.22892 6285 ft 164 kts 181°
2026-04-21 09:49 14.81547 120.22816 6285 ft 163 kts 181°
2026-04-21 09:49 14.80411 120.22740 6285 ft 163 kts 181°
2026-04-21 09:49 14.79294 120.22666 6285 ft 163 kts 181°
2026-04-21 09:50 14.78147 120.22588 6285 ft 163 kts 181°
2026-04-21 09:50 14.77762 120.22562 6285 ft 164 kts 181°
2026-04-21 09:50 14.74760 120.22213 6286 ft 165 kts 186°
2026-04-21 09:51 14.73601 120.22054 6286 ft 164 kts 184°
2026-04-21 09:51 14.72465 120.21923 6286 ft 164 kts 184°
2026-04-21 09:51 14.71332 120.21785 6286 ft 164 kts 184°
2026-04-21 09:51 14.70211 120.21634 6286 ft 164 kts 185°
2026-04-21 09:52 14.69069 120.21484 6286 ft 164 kts 184°
2026-04-21 09:52 14.67938 120.21341 6286 ft 164 kts 184°
2026-04-21 09:52 14.66808 120.21196 6286 ft 164 kts 184°
2026-04-21 09:52 14.65721 120.21054 6286 ft 164 kts 184°
2026-04-21 09:53 14.64549 120.20902 6287 ft 164 kts 184°
2026-04-21 09:53 14.63417 120.20756 6287 ft 164 kts 184°
2026-04-21 09:53 14.62282 120.20609 6287 ft 164 kts 184°
2026-04-21 09:53 14.61150 120.20463 6287 ft 164 kts 184°
2026-04-21 09:54 14.60014 120.20316 6286 ft 164 kts 184°
2026-04-21 09:54 14.58882 120.20170 6286 ft 164 kts 184°
2026-04-21 09:54 14.57747 120.20024 6286 ft 165 kts 184°
2026-04-21 09:54 14.56612 120.19876 6286 ft 164 kts 184°
2026-04-21 09:55 14.55477 120.19730 6286 ft 164 kts 184°
2026-04-21 09:55 14.54344 120.19583 6286 ft 164 kts 184°
2026-04-21 09:55 14.53211 120.19437 6286 ft 164 kts 184°
2026-04-21 09:55 14.52081 120.19289 6286 ft 164 kts 184°
2026-04-21 09:56 14.50949 120.19145 6286 ft 164 kts 184°
2026-04-21 09:56 14.49818 120.19000 6287 ft 164 kts 184°
2026-04-21 09:56 14.48686 120.18854 6287 ft 164 kts 184°
2026-04-21 09:56 14.47557 120.18706 6287 ft 164 kts 184°
2026-04-21 09:57 14.46426 120.18560 6287 ft 164 kts 184°
2026-04-21 09:57 14.45294 120.18415 6287 ft 164 kts 184°
2026-04-21 09:57 14.44160 120.18269 6287 ft 164 kts 184°
2026-04-21 09:57 14.43025 120.18122 6287 ft 164 kts 184°
2026-04-21 09:58 14.41907 120.17978 6287 ft 164 kts 184°
2026-04-21 09:58 14.40775 120.17832 6287 ft 164 kts 184°
2026-04-21 09:58 14.39641 120.17685 6287 ft 164 kts 184°
2026-04-21 09:58 14.38509 120.17539 6287 ft 164 kts 184°
2026-04-21 09:59 14.37374 120.17393 6287 ft 164 kts 184°
2026-04-21 09:59 14.36241 120.17247 6287 ft 164 kts 184°
2026-04-21 09:59 14.35107 120.17101 6287 ft 164 kts 184°
2026-04-21 09:59 14.33972 120.16954 6287 ft 164 kts 184°
2026-04-21 10:00 14.32838 120.16808 6287 ft 164 kts 184°
2026-04-21 10:00 14.31701 120.16662 6287 ft 164 kts 184°
2026-04-21 10:00 14.30565 120.16515 6287 ft 165 kts 184°
2026-04-21 10:00 14.29428 120.16368 6287 ft 165 kts 184°
2026-04-21 10:01 14.28291 120.16220 6287 ft 165 kts 184°
2026-04-21 10:01 14.27153 120.16074 6286 ft 165 kts 184°
2026-04-21 10:01 14.26015 120.15930 6286 ft 165 kts 184°
2026-04-21 10:01 14.24878 120.15783 6287 ft 165 kts 184°
2026-04-21 10:02 14.22603 120.15488 6287 ft 165 kts 184°
2026-04-21 10:02 14.21467 120.15343 6286 ft 165 kts 184°
2026-04-21 10:02 14.20330 120.15197 6286 ft 165 kts 184°
2026-04-21 10:03 14.19195 120.15050 6286 ft 165 kts 184°
2026-04-21 10:03 14.18058 120.14904 6286 ft 165 kts 184°
2026-04-21 10:03 14.17306 120.14806 6285 ft 164 kts 184°
2026-04-21 10:03 14.15787 120.14611 6280 ft 164 kts 184°
2026-04-21 10:04 14.15036 120.14515 6279 ft 164 kts 184°
2026-04-21 10:04 14.14190 120.14406 6278 ft 164 kts 184°
2026-04-21 10:04 14.12670 120.14210 6277 ft 165 kts 184°
2026-04-21 10:04 14.11918 120.14113 6277 ft 164 kts 184°
2026-04-21 10:05 14.10781 120.13967 6277 ft 164 kts 184°
2026-04-21 10:05 14.09646 120.13821 6277 ft 164 kts 184°
2026-04-21 10:05 14.08511 120.13675 6277 ft 164 kts 184°
2026-04-21 10:05 14.07377 120.13529 6277 ft 164 kts 184°
2026-04-21 10:06 14.06242 120.13383 6277 ft 165 kts 184°
2026-04-21 10:06 14.05105 120.13237 6277 ft 165 kts 184°
2026-04-21 10:06 14.03969 120.13091 6277 ft 164 kts 184°
2026-04-21 10:06 14.02836 120.12946 6277 ft 164 kts 184°
2026-04-21 10:07 14.01700 120.12800 6278 ft 164 kts 184°
2026-04-21 10:07 14.00567 120.12654 6278 ft 164 kts 184°
2026-04-21 10:07 13.99432 120.12508 6278 ft 164 kts 184°
2026-04-21 10:07 13.98304 120.12364 6278 ft 163 kts 184°
2026-04-21 10:08 13.97176 120.12218 6278 ft 163 kts 184°
2026-04-21 10:08 13.96047 120.12073 6277 ft 164 kts 184°
2026-04-21 10:08 13.94915 120.11928 6278 ft 164 kts 184°
2026-04-21 10:08 13.93786 120.11783 6278 ft 164 kts 184°
2026-04-21 10:09 13.92653 120.11638 6278 ft 164 kts 184°
2026-04-21 10:09 13.91522 120.11492 6278 ft 164 kts 184°
2026-04-21 10:09 13.90388 120.11347 6278 ft 164 kts 184°
2026-04-21 10:09 13.89252 120.11201 6279 ft 164 kts 184°
2026-04-21 10:10 13.88116 120.11056 6278 ft 165 kts 184°
2026-04-21 10:10 13.86997 120.10912 6277 ft 164 kts 184°
2026-04-21 10:10 13.85862 120.10770 6277 ft 164 kts 181°
2026-04-21 10:10 13.84735 120.10810 6274 ft 160 kts 158°
2026-04-21 10:11 13.83797 120.11390 6279 ft 157 kts 142°
2026-04-21 10:11 13.82904 120.12040 6280 ft 157 kts 141°
2026-04-21 10:11 13.82019 120.12703 6280 ft 158 kts 141°
2026-04-21 10:11 13.81136 120.13370 6277 ft 158 kts 141°
2026-04-21 10:12 13.80229 120.14008 6276 ft 158 kts 145°
2026-04-21 10:12 13.79286 120.14587 6271 ft 158 kts 147°
2026-04-21 10:12 13.78345 120.15158 6267 ft 157 kts 146°
2026-04-21 10:12 13.77418 120.15744 6271 ft 156 kts 145°
2026-04-21 10:13 13.76502 120.16334 6253 ft 155 kts 145°
2026-04-21 10:13 13.75590 120.16910 6257 ft 153 kts 146°
2026-04-21 10:13 13.74680 120.17478 6266 ft 153 kts 146°
2026-04-21 10:13 13.73768 120.18052 6285 ft 154 kts 145°
2026-04-21 10:14 13.72849 120.18634 6286 ft 156 kts 145°
2026-04-21 10:14 13.71925 120.19218 6285 ft 156 kts 145°
2026-04-21 10:14 13.70995 120.19803 6284 ft 157 kts 145°
2026-04-21 10:14 13.70061 120.20391 6283 ft 158 kts 145°
2026-04-21 10:15 13.69124 120.20982 6283 ft 158 kts 145°
2026-04-21 10:15 13.68185 120.21573 6283 ft 158 kts 145°
2026-04-21 10:15 13.67244 120.22166 6282 ft 159 kts 145°
2026-04-21 10:15 13.66304 120.22758 6282 ft 159 kts 145°
2026-04-21 10:16 13.65364 120.23351 6281 ft 158 kts 145°
2026-04-21 10:16 13.64427 120.23941 6280 ft 158 kts 146°
2026-04-21 10:16 13.63489 120.24529 6279 ft 158 kts 145°
2026-04-21 10:16 13.62552 120.25120 6279 ft 158 kts 145°
2026-04-21 10:17 13.61615 120.25712 6279 ft 158 kts 145°
2026-04-21 10:17 13.60676 120.26303 6279 ft 158 kts 145°
2026-04-21 10:17 13.59737 120.26894 6278 ft 158 kts 145°
2026-04-21 10:17 13.58799 120.27484 6278 ft 158 kts 145°
2026-04-21 10:18 13.57859 120.28076 6278 ft 158 kts 145°
2026-04-21 10:18 13.56919 120.28667 6278 ft 159 kts 146°
2026-04-21 10:18 13.55976 120.29260 6278 ft 159 kts 145°
2026-04-21 10:18 13.55035 120.29852 6278 ft 159 kts 146°
2026-04-21 10:19 13.54096 120.30444 6277 ft 158 kts 145°
2026-04-21 10:19 13.53158 120.31034 6277 ft 158 kts 145°
2026-04-21 10:19 13.52220 120.31624 6278 ft 158 kts 146°
2026-04-21 10:19 13.51283 120.32213 6278 ft 158 kts 146°
2026-04-21 10:20 13.50344 120.32803 6278 ft 158 kts 145°
2026-04-21 10:20 13.49404 120.33395 6278 ft 159 kts 145°
2026-04-21 10:20 13.48464 120.33987 6280 ft 159 kts 145°
2026-04-21 10:20 13.47535 120.34570 6281 ft 159 kts 145°
2026-04-21 10:21 13.46592 120.35162 6284 ft 159 kts 145°
2026-04-21 10:21 13.45648 120.35758 6290 ft 160 kts 145°
2026-04-21 10:21 13.44699 120.36354 6286 ft 160 kts 145°
2026-04-21 10:21 13.43746 120.36951 6287 ft 161 kts 145°
2026-04-21 10:22 13.42793 120.37551 6285 ft 160 kts 145°
2026-04-21 10:22 13.41843 120.38149 6287 ft 160 kts 145°
2026-04-21 10:22 13.40891 120.38747 6288 ft 160 kts 145°
2026-04-21 10:22 13.39939 120.39345 6285 ft 160 kts 145°
2026-04-21 10:23 13.38992 120.39940 6283 ft 159 kts 145°
2026-04-21 10:23 13.38047 120.40532 6282 ft 159 kts 145°
2026-04-21 10:23 13.37105 120.41125 6282 ft 159 kts 145°
2026-04-21 10:23 13.36165 120.41715 6282 ft 158 kts 145°
2026-04-21 10:24 13.35228 120.42304 6282 ft 158 kts 145°
2026-04-21 10:24 13.34291 120.42892 6283 ft 158 kts 145°
2026-04-21 10:24 13.33354 120.43481 6284 ft 158 kts 145°
2026-04-21 10:24 13.32416 120.44069 6284 ft 158 kts 145°
2026-04-21 10:25 13.31480 120.44657 6284 ft 158 kts 145°
2026-04-21 10:25 13.30543 120.45247 6285 ft 158 kts 145°
2026-04-21 10:25 13.29606 120.45834 6285 ft 158 kts 145°
2026-04-21 10:25 13.28671 120.46420 6285 ft 157 kts 145°
2026-04-21 10:26 13.27735 120.47007 6285 ft 158 kts 145°
2026-04-21 10:26 13.26800 120.47594 6286 ft 158 kts 145°
2026-04-21 10:26 13.25866 120.48181 6286 ft 158 kts 145°
2026-04-21 10:26 13.24930 120.48768 6286 ft 158 kts 145°
2026-04-21 10:27 13.23993 120.49355 6286 ft 158 kts 145°
2026-04-21 10:27 13.23058 120.49943 6286 ft 158 kts 145°
2026-04-21 10:27 13.22123 120.50530 6286 ft 157 kts 145°
2026-04-21 10:27 13.21188 120.51116 6286 ft 157 kts 145°
2026-04-21 10:28 13.20255 120.51700 6286 ft 157 kts 145°
2026-04-21 10:28 13.19319 120.52287 6286 ft 157 kts 145°
2026-04-21 10:28 13.18384 120.52873 6287 ft 158 kts 145°
2026-04-21 10:28 13.17448 120.53461 6286 ft 158 kts 145°
2026-04-21 10:29 13.16512 120.54048 6286 ft 158 kts 145°
2026-04-21 10:29 13.15574 120.54636 6286 ft 158 kts 145°
2026-04-21 10:29 13.14636 120.55223 6286 ft 158 kts 145°
2026-04-21 10:29 13.13700 120.55810 6286 ft 158 kts 145°
2026-04-21 10:30 13.12762 120.56398 6286 ft 158 kts 145°
2026-04-21 10:30 13.11826 120.56985 6286 ft 158 kts 145°
2026-04-21 10:30 13.10889 120.57572 6286 ft 158 kts 145°
2026-04-21 10:30 13.09952 120.58157 6287 ft 158 kts 145°
2026-04-21 10:31 13.09016 120.58744 6287 ft 158 kts 144°
2026-04-21 10:31 13.08082 120.59332 6286 ft 158 kts 144°
2026-04-21 10:31 13.07147 120.59918 6286 ft 158 kts 145°
2026-04-21 10:31 13.06209 120.60504 6286 ft 158 kts 145°
2026-04-21 10:32 13.05271 120.61091 6286 ft 158 kts 145°
2026-04-21 10:32 13.04346 120.61670 6286 ft 158 kts 145°
2026-04-21 10:32 13.03407 120.62258 6286 ft 158 kts 145°
2026-04-21 10:32 13.02469 120.62845 6286 ft 158 kts 145°
2026-04-21 10:33 13.01531 120.63433 6287 ft 158 kts 145°
2026-04-21 10:33 13.00595 120.64019 6287 ft 158 kts 145°
2026-04-21 10:33 12.99657 120.64606 6286 ft 158 kts 145°
2026-04-21 10:33 12.98718 120.65194 6287 ft 158 kts 145°
2026-04-21 10:34 12.97780 120.65781 6287 ft 158 kts 145°
2026-04-21 10:34 12.96840 120.66369 6287 ft 158 kts 145°
2026-04-21 10:34 12.95900 120.66957 6287 ft 158 kts 145°
2026-04-21 10:34 12.94960 120.67545 6287 ft 158 kts 145°
2026-04-21 10:35 12.94019 120.68134 6287 ft 158 kts 145°
2026-04-21 10:35 12.93082 120.68721 6287 ft 158 kts 145°
2026-04-21 10:35 12.92141 120.69309 6287 ft 158 kts 145°
2026-04-21 10:35 12.91202 120.69896 6287 ft 158 kts 145°
2026-04-21 10:36 12.90262 120.70483 6287 ft 158 kts 145°
2026-04-21 10:36 12.89322 120.71072 6287 ft 158 kts 145°
2026-04-21 10:36 12.88381 120.71660 6288 ft 159 kts 145°
2026-04-21 10:36 12.87440 120.72248 6288 ft 159 kts 145°
2026-04-21 10:37 12.86498 120.72837 6284 ft 159 kts 145°
2026-04-21 10:37 12.85553 120.73429 6281 ft 159 kts 145°
2026-04-21 10:37 12.84609 120.74018 6279 ft 159 kts 145°
2026-04-21 10:37 12.83663 120.74609 6279 ft 159 kts 145°
2026-04-21 10:38 12.82720 120.75198 6278 ft 159 kts 145°
2026-04-21 10:38 12.81775 120.75788 6278 ft 159 kts 145°
2026-04-21 10:38 12.80831 120.76379 6278 ft 159 kts 144°
2026-04-21 10:38 12.79884 120.76970 6278 ft 159 kts 145°
2026-04-21 10:39 12.78941 120.77559 6278 ft 159 kts 145°
2026-04-21 10:39 12.77997 120.78148 6278 ft 159 kts 144°
2026-04-21 10:39 12.77053 120.78739 6278 ft 159 kts 145°
2026-04-21 10:39 12.76108 120.79328 6278 ft 159 kts 145°
2026-04-21 10:40 12.75164 120.79917 6278 ft 159 kts 145°
2026-04-21 10:40 12.74221 120.80506 6278 ft 159 kts 144°
2026-04-21 10:40 12.73278 120.81094 6278 ft 159 kts 144°
2026-04-21 10:40 12.72337 120.81682 6278 ft 159 kts 144°
2026-04-21 10:41 12.71395 120.82273 6277 ft 159 kts 144°
2026-04-21 10:41 12.70452 120.82860 6277 ft 159 kts 144°
2026-04-21 10:41 12.69508 120.83448 6276 ft 159 kts 144°
2026-04-21 10:41 12.68571 120.84033 6276 ft 159 kts 144°
2026-04-21 10:42 12.67642 120.84614 6276 ft 159 kts 144°
2026-04-21 10:42 12.66702 120.85199 6277 ft 158 kts 144°
2026-04-21 10:42 12.65762 120.85786 6277 ft 158 kts 144°
2026-04-21 10:42 12.64822 120.86372 6276 ft 158 kts 144°
2026-04-21 10:43 12.63884 120.86958 6277 ft 158 kts 144°
2026-04-21 10:43 12.62945 120.87543 6277 ft 158 kts 144°
2026-04-21 10:43 12.62005 120.88129 6277 ft 158 kts 144°
2026-04-21 10:43 12.61064 120.88715 6277 ft 158 kts 144°
2026-04-21 10:44 12.60127 120.89300 6277 ft 158 kts 144°
2026-04-21 10:44 12.59188 120.89886 6277 ft 158 kts 144°
2026-04-21 10:44 12.58248 120.90472 6277 ft 158 kts 144°
2026-04-21 10:44 12.57307 120.91058 6277 ft 158 kts 144°
2026-04-21 10:45 12.56367 120.91644 6277 ft 158 kts 144°
2026-04-21 10:45 12.55429 120.92229 6277 ft 158 kts 144°
2026-04-21 10:45 12.54490 120.92814 6277 ft 158 kts 144°
2026-04-21 10:45 12.53551 120.93400 6277 ft 158 kts 144°
2026-04-21 10:46 12.52651 120.93960 6277 ft 158 kts 144°
2026-04-21 10:46 12.51686 120.94561 6277 ft 159 kts 144°
2026-04-21 10:46 12.50742 120.95150 6277 ft 159 kts 144°
2026-04-21 10:46 12.49800 120.95737 6278 ft 159 kts 144°
2026-04-21 10:47 12.48858 120.96323 6278 ft 158 kts 144°
2026-04-21 10:47 12.47919 120.96908 6278 ft 158 kts 144°
2026-04-21 10:47 12.46977 120.97494 6278 ft 158 kts 144°
2026-04-21 10:47 12.46035 120.98081 6278 ft 159 kts 144°
2026-04-21 10:48 12.45092 120.98668 6279 ft 159 kts 144°
2026-04-21 10:48 12.44149 120.99255 6278 ft 159 kts 144°
2026-04-21 10:48 12.43206 120.99842 6278 ft 159 kts 144°
2026-04-21 10:48 12.42263 121.00430 6278 ft 159 kts 144°
2026-04-21 10:49 12.41318 121.01018 6278 ft 159 kts 144°
2026-04-21 10:49 12.40374 121.01606 6278 ft 159 kts 144°
2026-04-21 10:49 12.39428 121.02195 6278 ft 159 kts 144°
2026-04-21 10:49 12.38480 121.02785 6278 ft 159 kts 144°
2026-04-21 10:50 12.37854 121.03174 6278 ft 159 kts 144°
2026-04-21 10:50 12.36586 121.03962 6278 ft 159 kts 144°
2026-04-21 10:50 12.35633 121.04539 6277 ft 160 kts 150°
2026-04-21 10:50 12.34905 121.04700 6278 ft 164 kts 171°
2026-04-21 10:51 12.33768 121.04814 6278 ft 164 kts 169°
2026-04-21 10:51 12.32631 121.04942 6278 ft 164 kts 167°
2026-04-21 10:51 12.31508 121.05145 6277 ft 164 kts 164°
2026-04-21 10:51 12.30394 121.05381 6277 ft 164 kts 164°
2026-04-21 10:52 12.29275 121.05600 6277 ft 164 kts 165°
2026-04-21 10:52 12.28147 121.05803 6283 ft 165 kts 165°
2026-04-21 10:52 12.27017 121.06011 6283 ft 165 kts 165°
2026-04-21 10:52 12.25887 121.06228 6285 ft 166 kts 165°
2026-04-21 10:53 12.24752 121.06446 6286 ft 166 kts 165°
2026-04-21 10:53 12.23612 121.06661 6281 ft 166 kts 165°
2026-04-21 10:53 12.22475 121.06874 6279 ft 166 kts 165°
2026-04-21 10:53 12.21340 121.07090 6277 ft 166 kts 165°
2026-04-21 10:54 12.20203 121.07306 6276 ft 166 kts 165°
2026-04-21 10:54 12.19066 121.07521 6275 ft 166 kts 165°
2026-04-21 10:54 12.17933 121.07735 6274 ft 166 kts 165°
2026-04-21 10:54 12.16800 121.07949 6274 ft 165 kts 165°
2026-04-21 10:55 12.15670 121.08163 6274 ft 165 kts 165°
2026-04-21 10:55 12.14541 121.08377 6274 ft 165 kts 165°
2026-04-21 10:55 12.13413 121.08590 6275 ft 165 kts 165°
2026-04-21 10:55 12.12285 121.08804 6275 ft 165 kts 165°
2026-04-21 10:56 12.11157 121.09017 6275 ft 165 kts 165°
2026-04-21 10:56 12.10028 121.09229 6276 ft 165 kts 165°
2026-04-21 10:56 12.08931 121.09437 6276 ft 165 kts 164°
2026-04-21 10:56 12.07803 121.09651 6276 ft 165 kts 165°
2026-04-21 10:57 12.06689 121.09862 6276 ft 165 kts 165°
2026-04-21 10:57 12.05546 121.10078 6276 ft 165 kts 165°
2026-04-21 10:57 12.04434 121.10288 6276 ft 165 kts 165°
2026-04-21 10:57 12.03291 121.10504 6277 ft 166 kts 165°
2026-04-21 10:58 12.02165 121.10717 6277 ft 168 kts 165°
2026-04-21 10:58 12.01012 121.10934 6277 ft 169 kts 165°
2026-04-21 10:58 11.99854 121.11153 6277 ft 170 kts 165°
2026-04-21 10:58 11.98688 121.11371 6281 ft 171 kts 165°
2026-04-21 10:59 11.97519 121.11593 6285 ft 171 kts 164°
2026-04-21 10:59 11.96352 121.11816 6286 ft 171 kts 164°
2026-04-21 10:59 11.95181 121.12036 6286 ft 171 kts 165°
2026-04-21 10:59 11.94012 121.12256 6287 ft 171 kts 164°
2026-04-21 11:00 11.92845 121.12478 6288 ft 171 kts 164°
2026-04-21 11:00 11.91676 121.12700 6288 ft 171 kts 164°
2026-04-21 11:00 11.90505 121.12920 6288 ft 171 kts 165°
2026-04-21 11:00 11.89336 121.13137 6292 ft 171 kts 165°
2026-04-21 11:01 11.88160 121.13254 6326 ft 172 kts 174°
2026-04-21 11:01 11.86937 121.13086 6192 ft 184 kts 194°
2026-04-21 11:01 11.85883 121.12350 6186 ft 188 kts 231°
2026-04-21 11:02 11.85947 121.09780 6062 ft 186 kts 278°
2026-04-21 11:02 11.85663 121.08541 6176 ft 180 kts 235°
2026-04-21 11:02 11.84706 121.07814 6229 ft 170 kts 190°
2026-04-21 11:02 11.83599 121.07945 6256 ft 158 kts 144°
2026-04-21 11:03 11.82763 121.08656 6275 ft 157 kts 133°
2026-04-21 11:03 11.81959 121.09412 6284 ft 158 kts 132°
2026-04-21 11:03 11.81156 121.10183 6291 ft 159 kts 132°
2026-04-21 11:03 11.80319 121.10926 6291 ft 163 kts 145°
2026-04-21 11:04 11.79200 121.11212 6295 ft 168 kts 165°
2026-04-21 11:04 11.78039 121.11397 6295 ft 169 kts 166°
2026-04-21 11:04 11.76871 121.11578 6296 ft 170 kts 166°
2026-04-21 11:04 11.75703 121.11757 6295 ft 170 kts 166°
2026-04-21 11:05 11.74533 121.11953 6295 ft 170 kts 163°
2026-04-21 11:05 11.73387 121.12230 6295 ft 169 kts 160°
2026-04-21 11:05 11.72258 121.12525 6380 ft 164 kts 161°
2026-04-21 11:05 11.71166 121.12792 6503 ft 159 kts 161°
2026-04-21 11:06 11.70106 121.13040 6626 ft 155 kts 161°
2026-04-21 11:06 11.69073 121.13285 6748 ft 150 kts 161°
2026-04-21 11:06 11.68064 121.13532 6872 ft 148 kts 161°
2026-04-21 11:06 11.67073 121.13775 6996 ft 145 kts 160°
2026-04-21 11:07 11.66096 121.14011 7120 ft 143 kts 161°
2026-04-21 11:07 11.65133 121.14242 7231 ft 142 kts 161°
2026-04-21 11:07 11.64159 121.14479 7287 ft 145 kts 161°
2026-04-21 11:07 11.63164 121.14720 7318 ft 149 kts 161°
2026-04-21 11:08 11.62137 121.14966 7334 ft 153 kts 161°
2026-04-21 11:08 11.61085 121.15218 7341 ft 157 kts 161°
2026-04-21 11:08 11.60024 121.15475 7344 ft 160 kts 161°
2026-04-21 11:08 11.58934 121.15739 7344 ft 162 kts 162°
2026-04-21 11:09 11.57833 121.16005 7344 ft 163 kts 162°
2026-04-21 11:09 11.56723 121.16274 7343 ft 164 kts 162°
2026-04-21 11:09 11.55607 121.16542 7342 ft 165 kts 162°
2026-04-21 11:09 11.54486 121.16813 7342 ft 166 kts 162°
2026-04-21 11:10 11.53363 121.17085 7342 ft 166 kts 162°
2026-04-21 11:10 11.52234 121.17357 7342 ft 167 kts 162°
2026-04-21 11:10 11.51103 121.17631 7341 ft 167 kts 162°
2026-04-21 11:10 11.49969 121.17904 7341 ft 168 kts 162°
2026-04-21 11:11 11.48834 121.18178 7341 ft 168 kts 162°
2026-04-21 11:11 11.47698 121.18452 7341 ft 168 kts 162°
2026-04-21 11:11 11.46562 121.18726 7341 ft 168 kts 162°
2026-04-21 11:11 11.45428 121.19000 7341 ft 168 kts 162°
2026-04-21 11:12 11.44288 121.19276 7341 ft 169 kts 162°
2026-04-21 11:12 11.43144 121.19551 7342 ft 169 kts 162°
2026-04-21 11:12 11.41997 121.19828 7342 ft 170 kts 162°
2026-04-21 11:12 11.40846 121.20106 7342 ft 170 kts 162°
2026-04-21 11:13 11.39696 121.20383 7342 ft 170 kts 162°
2026-04-21 11:13 11.38542 121.20661 7342 ft 170 kts 162°
2026-04-21 11:13 11.37389 121.20940 7341 ft 170 kts 162°
2026-04-21 11:13 11.36234 121.21218 7341 ft 171 kts 162°
2026-04-21 11:14 11.35080 121.21496 7341 ft 171 kts 162°
2026-04-21 11:14 11.33925 121.21775 7341 ft 171 kts 162°
2026-04-21 11:14 11.32771 121.22053 7341 ft 171 kts 162°
2026-04-21 11:14 11.31616 121.22332 7341 ft 171 kts 162°
2026-04-21 11:15 11.30461 121.22611 7341 ft 171 kts 162°
2026-04-21 11:15 11.29304 121.22889 7341 ft 171 kts 162°
2026-04-21 11:15 11.28147 121.23167 7341 ft 171 kts 162°
2026-04-21 11:15 11.26990 121.23447 7341 ft 171 kts 162°
2026-04-21 11:16 11.25834 121.23726 7341 ft 171 kts 162°
2026-04-21 11:16 11.24677 121.24004 7341 ft 171 kts 162°
2026-04-21 11:16 11.23524 121.24281 7341 ft 170 kts 162°
2026-04-21 11:16 11.22373 121.24559 7341 ft 170 kts 162°
2026-04-21 11:17 11.21220 121.24838 7342 ft 170 kts 162°
2026-04-21 11:17 11.20066 121.25115 7342 ft 170 kts 162°
2026-04-21 11:17 11.18928 121.25389 7342 ft 170 kts 162°
2026-04-21 11:17 11.17758 121.25671 7342 ft 170 kts 162°
2026-04-21 11:18 11.16619 121.25945 7341 ft 171 kts 162°
2026-04-21 11:18 11.15463 121.26224 7341 ft 171 kts 162°
2026-04-21 11:18 11.14310 121.26501 7342 ft 170 kts 162°
2026-04-21 11:18 11.13155 121.26779 7342 ft 170 kts 162°
2026-04-21 11:19 11.12003 121.27057 7342 ft 170 kts 162°
2026-04-21 11:19 11.10852 121.27334 7340 ft 170 kts 162°
2026-04-21 11:19 11.09699 121.27611 7336 ft 170 kts 162°
2026-04-21 11:19 11.08544 121.27889 7334 ft 171 kts 162°
2026-04-21 11:20 11.07388 121.28167 7333 ft 171 kts 162°
2026-04-21 11:20 11.06232 121.28446 7333 ft 171 kts 162°
2026-04-21 11:20 11.05076 121.28724 7332 ft 171 kts 162°
2026-04-21 11:20 11.03921 121.29002 7332 ft 171 kts 162°
2026-04-21 11:21 11.02766 121.29280 7332 ft 170 kts 162°
2026-04-21 11:21 11.01612 121.29558 7332 ft 170 kts 162°
2026-04-21 11:21 11.00456 121.29835 7333 ft 170 kts 162°
2026-04-21 11:21 10.99507 121.30062 7333 ft 170 kts 162°
2026-04-21 11:22 10.98337 121.30279 7333 ft 171 kts 166°
2026-04-21 11:22 10.97162 121.30479 7333 ft 171 kts 165°
2026-04-21 11:22 10.95994 121.30707 7333 ft 171 kts 164°
2026-04-21 11:22 10.94829 121.30944 7333 ft 171 kts 164°
2026-04-21 11:23 10.93661 121.31168 7333 ft 171 kts 165°
2026-04-21 11:23 10.92493 121.31386 7333 ft 171 kts 165°
2026-04-21 11:23 10.91327 121.31608 7333 ft 171 kts 165°
2026-04-21 11:23 10.90161 121.31834 7333 ft 171 kts 165°
2026-04-21 11:24 10.88994 121.32059 7333 ft 171 kts 165°
2026-04-21 11:24 10.87825 121.32282 7333 ft 171 kts 165°
2026-04-21 11:24 10.86657 121.32504 7333 ft 171 kts 165°
2026-04-21 11:24 10.85487 121.32728 7333 ft 171 kts 165°
2026-04-21 11:25 10.84319 121.32951 7333 ft 170 kts 165°
2026-04-21 11:25 10.83155 121.33174 7332 ft 170 kts 165°
2026-04-21 11:25 10.81991 121.33397 7332 ft 170 kts 165°
2026-04-21 11:25 10.80824 121.33620 7333 ft 171 kts 165°
2026-04-21 11:26 10.79658 121.33843 7333 ft 170 kts 165°
2026-04-21 11:26 10.78493 121.34065 7333 ft 170 kts 165°
2026-04-21 11:26 10.77328 121.34290 7333 ft 171 kts 165°
2026-04-21 11:26 10.76160 121.34511 7333 ft 171 kts 165°
2026-04-21 11:27 10.74993 121.34732 7333 ft 170 kts 165°
2026-04-21 11:27 10.73829 121.34955 7332 ft 170 kts 165°
2026-04-21 11:27 10.72665 121.35180 7332 ft 170 kts 165°
2026-04-21 11:27 10.71499 121.35403 7332 ft 171 kts 165°
2026-04-21 11:28 10.70333 121.35624 7332 ft 171 kts 165°
2026-04-21 11:28 10.69166 121.35847 7332 ft 171 kts 165°
2026-04-21 11:28 10.68015 121.36067 7333 ft 171 kts 165°
2026-04-21 11:28 10.66848 121.36291 7333 ft 171 kts 165°
2026-04-21 11:29 10.65679 121.36514 7333 ft 171 kts 165°
2026-04-21 11:29 10.64511 121.36736 7333 ft 171 kts 165°
2026-04-21 11:29 10.63341 121.36960 7333 ft 171 kts 165°
2026-04-21 11:29 10.62174 121.37183 7333 ft 171 kts 165°
2026-04-21 11:30 10.61004 121.37407 7333 ft 171 kts 165°
2026-04-21 11:30 10.59835 121.37630 7333 ft 171 kts 165°
2026-04-21 11:30 10.58667 121.37852 7333 ft 171 kts 165°
2026-04-21 11:30 10.57499 121.38075 7333 ft 171 kts 165°
2026-04-21 11:31 10.56330 121.38299 7333 ft 171 kts 165°
2026-04-21 11:31 10.55162 121.38522 7333 ft 171 kts 165°
2026-04-21 11:31 10.53992 121.38745 7333 ft 171 kts 165°
2026-04-21 11:31 10.52826 121.38967 7333 ft 171 kts 165°
2026-04-21 11:32 10.51660 121.39191 7333 ft 171 kts 165°
2026-04-21 11:32 10.50493 121.39407 7332 ft 171 kts 166°
2026-04-21 11:32 10.49325 121.39624 7333 ft 171 kts 165°
2026-04-21 11:32 10.48155 121.39842 7333 ft 171 kts 165°
2026-04-21 11:33 10.46988 121.40061 7333 ft 171 kts 165°
2026-04-21 11:33 10.45822 121.40278 7332 ft 170 kts 166°
2026-04-21 11:33 10.44655 121.40496 7333 ft 170 kts 165°
2026-04-21 11:33 10.43490 121.40714 7333 ft 170 kts 165°
2026-04-21 11:34 10.42324 121.40932 7333 ft 170 kts 166°
2026-04-21 11:34 10.41157 121.41149 7333 ft 170 kts 165°
2026-04-21 11:34 10.39990 121.41367 7333 ft 171 kts 165°
2026-04-21 11:34 10.38821 121.41585 7333 ft 171 kts 165°
2026-04-21 11:35 10.37649 121.41803 7333 ft 171 kts 166°
2026-04-21 11:35 10.36477 121.42021 7333 ft 171 kts 165°
2026-04-21 11:35 10.35308 121.42240 7333 ft 171 kts 165°
2026-04-21 11:35 10.34138 121.42459 7333 ft 171 kts 165°
2026-04-21 11:36 10.32970 121.42676 7332 ft 171 kts 165°
2026-04-21 11:36 10.31800 121.42894 7332 ft 171 kts 166°
2026-04-21 11:36 10.30632 121.43114 7332 ft 171 kts 166°
2026-04-21 11:36 10.29464 121.43330 7332 ft 171 kts 166°
2026-04-21 11:37 10.28293 121.43546 7333 ft 171 kts 166°
2026-04-21 11:37 10.27126 121.43764 7333 ft 171 kts 166°
2026-04-21 11:37 10.25959 121.43983 7333 ft 171 kts 166°
2026-04-21 11:37 10.24789 121.44201 7333 ft 171 kts 166°
2026-04-21 11:38 10.24015 121.44345 7333 ft 171 kts 166°
2026-04-21 11:38 10.22845 121.44563 7333 ft 171 kts 166°
2026-04-21 11:38 10.21676 121.44781 7333 ft 171 kts 166°
2026-04-21 11:38 10.20508 121.44999 7332 ft 171 kts 166°
2026-04-21 11:39 10.19338 121.45217 7333 ft 171 kts 166°
2026-04-21 11:39 10.18170 121.45434 7333 ft 171 kts 166°
2026-04-21 11:39 10.17003 121.45652 7333 ft 171 kts 166°
2026-04-21 11:39 10.15835 121.45869 7333 ft 171 kts 166°
2026-04-21 11:40 10.14668 121.46087 7333 ft 171 kts 166°
2026-04-21 11:40 10.13500 121.46304 7333 ft 171 kts 166°
2026-04-21 11:40 10.12331 121.46521 7333 ft 171 kts 166°
2026-04-21 11:40 10.11163 121.46739 7333 ft 170 kts 166°
2026-04-21 11:41 10.09996 121.46956 7333 ft 171 kts 166°
2026-04-21 11:41 10.08828 121.47174 7333 ft 171 kts 166°
2026-04-21 11:41 10.07659 121.47392 7334 ft 171 kts 166°
2026-04-21 11:41 10.06489 121.47609 7333 ft 171 kts 166°
2026-04-21 11:42 10.05320 121.47827 7333 ft 171 kts 166°
2026-04-21 11:42 10.04149 121.48045 7333 ft 171 kts 166°
2026-04-21 11:42 10.02995 121.48260 7332 ft 171 kts 166°
2026-04-21 11:42 10.01809 121.48480 7333 ft 171 kts 166°
2026-04-21 11:43 10.00639 121.48698 7332 ft 171 kts 166°
2026-04-21 11:43 9.99487 121.48912 7333 ft 171 kts 166°
2026-04-21 11:43 9.98317 121.49131 7332 ft 171 kts 166°
2026-04-21 11:43 9.97147 121.49349 7332 ft 171 kts 166°
2026-04-21 11:44 9.95978 121.49564 7332 ft 171 kts 166°
2026-04-21 11:44 9.94811 121.49781 7332 ft 171 kts 166°
2026-04-21 11:44 9.93642 121.50000 7332 ft 171 kts 166°
2026-04-21 11:44 9.92473 121.50218 7333 ft 171 kts 166°
2026-04-21 11:45 9.91305 121.50434 7333 ft 171 kts 166°
2026-04-21 11:45 9.90134 121.50651 7333 ft 171 kts 166°
2026-04-21 11:45 9.88963 121.50870 7333 ft 171 kts 166°
2026-04-21 11:45 9.87789 121.51088 7333 ft 171 kts 166°
2026-04-21 11:46 9.86617 121.51305 7333 ft 171 kts 166°
2026-04-21 11:46 9.85444 121.51525 7333 ft 171 kts 166°
2026-04-21 11:46 9.84274 121.51742 7333 ft 171 kts 166°
2026-04-21 11:46 9.83104 121.51959 7333 ft 171 kts 166°
2026-04-21 11:47 9.81933 121.52176 7333 ft 171 kts 166°
2026-04-21 11:47 9.80763 121.52394 7333 ft 171 kts 166°
2026-04-21 11:47 9.79591 121.52613 7333 ft 171 kts 166°
2026-04-21 11:47 9.78421 121.52830 7333 ft 171 kts 166°
2026-04-21 11:48 9.77250 121.53047 7333 ft 171 kts 166°
2026-04-21 11:48 9.76081 121.53264 7333 ft 171 kts 166°
2026-04-21 11:48 9.74909 121.53482 7332 ft 171 kts 166°
2026-04-21 11:48 9.73736 121.53701 7327 ft 171 kts 166°
2026-04-21 11:49 9.72564 121.53918 7325 ft 171 kts 166°
2026-04-21 11:49 9.71391 121.54135 7324 ft 171 kts 166°
2026-04-21 11:49 9.70220 121.54353 7324 ft 171 kts 166°
2026-04-21 11:49 9.69049 121.54571 7324 ft 171 kts 166°
2026-04-21 11:50 9.67877 121.54789 7324 ft 171 kts 166°
2026-04-21 11:50 9.66706 121.55005 7324 ft 171 kts 166°
2026-04-21 11:50 9.65550 121.55220 7324 ft 171 kts 166°
2026-04-21 11:50 9.64377 121.55438 7324 ft 172 kts 166°
2026-04-21 11:51 9.63206 121.55655 7324 ft 171 kts 166°
2026-04-21 11:51 9.62032 121.55873 7324 ft 171 kts 166°
2026-04-21 11:51 9.60862 121.56090 7324 ft 171 kts 166°
2026-04-21 11:51 9.59689 121.56307 7324 ft 171 kts 166°
2026-04-21 11:52 9.58518 121.56526 7324 ft 171 kts 166°
2026-04-21 11:52 9.57345 121.56743 7322 ft 171 kts 166°
2026-04-21 11:52 9.56174 121.56960 7324 ft 171 kts 166°
2026-04-21 11:52 9.55002 121.57177 7324 ft 171 kts 166°
2026-04-21 11:53 9.53830 121.57395 7324 ft 171 kts 166°
2026-04-21 11:53 9.52660 121.57612 7324 ft 171 kts 166°
2026-04-21 11:53 9.51490 121.57828 7321 ft 171 kts 166°
2026-04-21 11:53 9.50324 121.58045 7322 ft 171 kts 166°
2026-04-21 11:54 9.49155 121.58262 7323 ft 171 kts 166°
2026-04-21 11:54 9.47987 121.58478 7324 ft 171 kts 166°
2026-04-21 11:54 9.46819 121.58695 7324 ft 171 kts 166°
2026-04-21 11:54 9.45649 121.58912 7323 ft 171 kts 166°
2026-04-21 11:55 9.44477 121.59129 7324 ft 171 kts 166°
2026-04-21 11:55 9.43307 121.59346 7324 ft 171 kts 166°
2026-04-21 11:55 9.42137 121.59563 7324 ft 171 kts 166°
2026-04-21 11:55 9.40964 121.59780 7324 ft 171 kts 166°
2026-04-21 11:56 9.39791 121.59998 7324 ft 171 kts 166°
2026-04-21 11:56 9.38618 121.60215 7324 ft 171 kts 166°
2026-04-21 11:56 9.37445 121.60432 7324 ft 171 kts 166°
2026-04-21 11:56 9.36273 121.60649 7324 ft 171 kts 166°
2026-04-21 11:57 9.35100 121.60867 7324 ft 171 kts 166°
2026-04-21 11:57 9.33929 121.61084 7323 ft 171 kts 166°
2026-04-21 11:57 9.32758 121.61300 7321 ft 171 kts 166°
2026-04-21 11:57 9.31587 121.61517 7324 ft 171 kts 166°
2026-04-21 11:58 9.30431 121.61731 7324 ft 171 kts 166°
2026-04-21 11:58 9.29246 121.61952 7324 ft 171 kts 166°
2026-04-21 11:58 9.28088 121.62166 7324 ft 171 kts 166°
2026-04-21 11:58 9.26917 121.62382 7323 ft 171 kts 166°
2026-04-21 11:59 9.25744 121.62599 7324 ft 171 kts 166°
2026-04-21 11:59 9.24573 121.62816 7324 ft 171 kts 166°
2026-04-21 11:59 9.23400 121.63034 7322 ft 171 kts 166°
2026-04-21 11:59 9.22228 121.63251 7323 ft 171 kts 166°
2026-04-21 12:00 9.21058 121.63467 7324 ft 171 kts 166°
2026-04-21 12:00 9.19888 121.63683 7324 ft 171 kts 166°
2026-04-21 12:00 9.18718 121.63900 7324 ft 171 kts 166°
2026-04-21 12:00 9.17545 121.64117 7324 ft 171 kts 166°
2026-04-21 12:01 9.16374 121.64334 7324 ft 171 kts 166°
2026-04-21 12:01 9.15203 121.64551 7324 ft 171 kts 166°
2026-04-21 12:01 9.14032 121.64768 7324 ft 171 kts 166°
2026-04-21 12:01 9.12862 121.64984 7324 ft 171 kts 166°
2026-04-21 12:02 9.11691 121.65200 7324 ft 171 kts 166°
2026-04-21 12:02 9.09351 121.65634 7324 ft 171 kts 166°
2026-04-21 12:02 9.08180 121.65851 7324 ft 171 kts 166°
2026-04-21 12:03 9.07011 121.66067 7324 ft 171 kts 166°
2026-04-21 12:03 9.05839 121.66283 7324 ft 171 kts 166°
2026-04-21 12:03 9.04671 121.66501 7324 ft 171 kts 166°
2026-04-21 12:03 9.03514 121.66714 7324 ft 171 kts 167°
2026-04-21 12:04 9.02328 121.66931 7324 ft 171 kts 167°
2026-04-21 12:04 9.01174 121.67144 7324 ft 170 kts 166°
2026-04-21 12:04 9.00008 121.67361 7324 ft 170 kts 166°
2026-04-21 12:04 8.98848 121.67576 7323 ft 170 kts 166°
2026-04-21 12:05 8.97688 121.67791 7323 ft 169 kts 166°
2026-04-21 12:05 8.96532 121.68004 7324 ft 169 kts 166°
2026-04-21 12:05 8.95376 121.68217 7324 ft 169 kts 166°
2026-04-21 12:05 8.94221 121.68431 7324 ft 169 kts 166°
2026-04-21 12:06 8.93067 121.68645 7324 ft 168 kts 166°
2026-04-21 12:06 8.91914 121.68858 7324 ft 169 kts 166°
2026-04-21 12:06 8.90761 121.69071 7323 ft 168 kts 166°
2026-04-21 12:06 8.89608 121.69284 7324 ft 168 kts 166°
2026-04-21 12:07 8.88454 121.69497 7324 ft 168 kts 166°
2026-04-21 12:07 8.87302 121.69710 7324 ft 168 kts 167°
2026-04-21 12:07 8.86151 121.69922 7324 ft 168 kts 166°
2026-04-21 12:07 8.85001 121.70135 7324 ft 168 kts 166°
2026-04-21 12:08 8.83849 121.70348 7323 ft 168 kts 166°
2026-04-21 12:08 8.82699 121.70560 7324 ft 168 kts 166°
2026-04-21 12:08 8.81548 121.70772 7324 ft 168 kts 167°
2026-04-21 12:08 8.80398 121.70985 7324 ft 168 kts 166°
2026-04-21 12:09 8.79247 121.71198 7323 ft 168 kts 167°
2026-04-21 12:09 8.78096 121.71412 7323 ft 168 kts 167°
2026-04-21 12:09 8.76944 121.71623 7323 ft 168 kts 167°
2026-04-21 12:09 8.75795 121.71834 7324 ft 168 kts 167°
2026-04-21 12:10 8.74645 121.72047 7324 ft 168 kts 167°
2026-04-21 12:10 8.73495 121.72260 7324 ft 168 kts 167°
2026-04-21 12:10 8.72347 121.72472 7324 ft 168 kts 167°
2026-04-21 12:10 8.71198 121.72684 7324 ft 168 kts 167°
2026-04-21 12:11 8.70049 121.72896 7324 ft 168 kts 167°
2026-04-21 12:11 8.68902 121.73108 7323 ft 168 kts 167°
2026-04-21 12:11 8.67755 121.73320 7324 ft 168 kts 167°
2026-04-21 12:11 8.66607 121.73531 7324 ft 168 kts 167°
2026-04-21 12:12 8.65474 121.73740 7324 ft 168 kts 167°
2026-04-21 12:12 8.64328 121.73952 7322 ft 167 kts 167°
2026-04-21 12:12 8.63183 121.74164 7324 ft 167 kts 167°
2026-04-21 12:12 8.62035 121.74375 7323 ft 168 kts 167°
2026-04-21 12:13 8.60890 121.74585 7319 ft 167 kts 167°
2026-04-21 12:13 8.59750 121.74795 7293 ft 168 kts 167°
2026-04-21 12:13 8.58594 121.75013 7259 ft 170 kts 167°
2026-04-21 12:13 8.57422 121.75229 7220 ft 173 kts 167°
2026-04-21 12:14 8.56226 121.75444 7181 ft 175 kts 168°
2026-04-21 12:14 8.55024 121.75665 7139 ft 176 kts 167°
2026-04-21 12:14 8.53813 121.75892 7095 ft 177 kts 167°
2026-04-21 12:14 8.52597 121.76116 7052 ft 178 kts 167°
2026-04-21 12:15 8.51378 121.76340 7023 ft 178 kts 167°
2026-04-21 12:15 8.50165 121.76565 7009 ft 177 kts 167°
2026-04-21 12:15 8.48959 121.76787 7005 ft 176 kts 167°
2026-04-21 12:15 8.47759 121.77008 6999 ft 175 kts 167°
2026-04-21 12:16 8.46565 121.77228 7000 ft 174 kts 167°
2026-04-21 12:16 8.45375 121.77449 6999 ft 173 kts 167°
2026-04-21 12:16 8.44190 121.77665 7000 ft 173 kts 167°
2026-04-21 12:16 8.43010 121.77882 7001 ft 172 kts 167°
2026-04-21 12:17 8.41830 121.78101 7000 ft 172 kts 167°
2026-04-21 12:17 8.40652 121.78318 7001 ft 172 kts 167°
2026-04-21 12:17 8.39474 121.78535 6999 ft 172 kts 167°
2026-04-21 12:17 8.38298 121.78751 7001 ft 172 kts 167°
2026-04-21 12:18 8.37122 121.78969 6997 ft 172 kts 167°
2026-04-21 12:18 8.35944 121.79186 7000 ft 172 kts 167°
2026-04-21 12:18 8.34767 121.79403 6999 ft 172 kts 167°
2026-04-21 12:18 8.33587 121.79620 7001 ft 172 kts 167°
2026-04-21 12:19 8.32408 121.79836 7002 ft 172 kts 167°
2026-04-21 12:19 8.31229 121.80054 6998 ft 172 kts 167°
2026-04-21 12:19 8.30049 121.80272 6999 ft 172 kts 167°
2026-04-21 12:19 8.28869 121.80489 6995 ft 172 kts 167°
2026-04-21 12:20 8.27689 121.80706 7003 ft 172 kts 167°
2026-04-21 12:20 8.26507 121.80924 7003 ft 173 kts 167°
2026-04-21 12:20 8.25326 121.81141 7002 ft 173 kts 167°
2026-04-21 12:20 8.24143 121.81360 7002 ft 173 kts 167°
2026-04-21 12:21 8.22960 121.81577 7001 ft 173 kts 168°
2026-04-21 12:21 8.21778 121.81796 6999 ft 173 kts 168°
2026-04-21 12:21 8.20595 121.82013 6997 ft 173 kts 168°
2026-04-21 12:21 8.19415 121.82229 7001 ft 173 kts 168°
2026-04-21 12:22 8.18233 121.82447 7001 ft 172 kts 168°
2026-04-21 12:22 8.17051 121.82665 7001 ft 173 kts 168°
2026-04-21 12:22 8.15872 121.82882 7001 ft 172 kts 168°
2026-04-21 12:22 8.14691 121.83099 7001 ft 172 kts 168°
2026-04-21 12:23 8.13509 121.83317 7001 ft 172 kts 168°
2026-04-21 12:23 8.12330 121.83534 7001 ft 173 kts 168°
2026-04-21 12:23 8.11147 121.83752 6996 ft 173 kts 168°
2026-04-21 12:23 8.09967 121.83969 7001 ft 173 kts 168°
2026-04-21 12:24 8.08785 121.84186 6997 ft 173 kts 168°
2026-04-21 12:24 8.07604 121.84404 7001 ft 173 kts 168°
2026-04-21 12:24 8.06424 121.84621 7001 ft 172 kts 168°
2026-04-21 12:24 8.05243 121.84838 7001 ft 172 kts 168°
2026-04-21 12:25 8.04061 121.85055 6996 ft 172 kts 168°
2026-04-21 12:25 8.02882 121.85272 6996 ft 172 kts 168°
2026-04-21 12:25 8.02100 121.85416 7000 ft 172 kts 168°
2026-04-21 12:25 8.00521 121.85707 7001 ft 172 kts 168°
2026-04-21 12:26 7.99343 121.85923 7001 ft 173 kts 168°
2026-04-21 12:26 7.98560 121.86067 7001 ft 172 kts 168°
2026-04-21 12:26 7.97379 121.86284 6998 ft 173 kts 168°
2026-04-21 12:26 7.96197 121.86501 7002 ft 173 kts 168°
2026-04-21 12:27 7.95017 121.86718 7001 ft 173 kts 168°
2026-04-21 12:27 7.93451 121.87007 7001 ft 173 kts 168°
2026-04-21 12:27 7.92652 121.87154 7001 ft 173 kts 168°
2026-04-21 12:27 7.91471 121.87370 7001 ft 172 kts 168°
2026-04-21 12:28 7.90289 121.87588 7001 ft 173 kts 168°
2026-04-21 12:28 7.89108 121.87805 6999 ft 173 kts 168°
2026-04-21 12:28 7.87927 121.88022 7001 ft 173 kts 168°
2026-04-21 12:28 7.86747 121.88239 7001 ft 173 kts 168°
2026-04-21 12:29 7.85562 121.88457 6997 ft 173 kts 168°
2026-04-21 12:29 7.84379 121.88674 6997 ft 173 kts 168°
2026-04-21 12:29 7.83199 121.88890 7002 ft 173 kts 168°
2026-04-21 12:29 7.82016 121.89108 6999 ft 173 kts 168°
2026-04-21 12:30 7.80841 121.89324 7002 ft 173 kts 168°
2026-04-21 12:30 7.79661 121.89541 6999 ft 172 kts 168°
2026-04-21 12:30 7.78480 121.89758 7001 ft 172 kts 168°
2026-04-21 12:30 7.77303 121.89974 7001 ft 172 kts 168°
2026-04-21 12:31 7.76126 121.90190 6999 ft 172 kts 168°
2026-04-21 12:31 7.74947 121.90407 7002 ft 172 kts 168°
2026-04-21 12:31 7.73767 121.90623 6998 ft 172 kts 168°
2026-04-21 12:31 7.72589 121.90840 7002 ft 172 kts 168°
2026-04-21 12:32 7.71411 121.91057 7002 ft 172 kts 168°
2026-04-21 12:32 7.70230 121.91273 7001 ft 172 kts 168°
2026-04-21 12:32 7.69051 121.91490 7001 ft 172 kts 168°
2026-04-21 12:32 7.67870 121.91707 6997 ft 173 kts 168°
2026-04-21 12:33 7.66664 121.91928 6870 ft 177 kts 168°
2026-04-21 12:33 7.65449 121.92150 6734 ft 178 kts 168°
2026-04-21 12:33 7.64233 121.92374 6621 ft 178 kts 168°
2026-04-21 12:33 7.63015 121.92599 6496 ft 178 kts 168°
2026-04-21 12:34 7.61795 121.92821 6369 ft 178 kts 168°
2026-04-21 12:34 7.60575 121.93045 6244 ft 178 kts 167°
2026-04-21 12:34 7.59373 121.93268 6124 ft 178 kts 167°
2026-04-21 12:34 7.58166 121.93489 6056 ft 175 kts 168°
2026-04-21 12:35 7.56984 121.93704 6025 ft 171 kts 168°
2026-04-21 12:35 7.55830 121.93915 6009 ft 167 kts 167°
2026-04-21 12:35 7.54700 121.94124 6003 ft 164 kts 167°
2026-04-21 12:35 7.53587 121.94329 6000 ft 161 kts 167°
2026-04-21 12:36 7.52505 121.94525 5998 ft 157 kts 167°
2026-04-21 12:36 7.51419 121.94728 5999 ft 159 kts 167°
2026-04-21 12:36 7.50328 121.94929 5999 ft 160 kts 167°
2026-04-21 12:36 7.49227 121.95129 6002 ft 161 kts 167°
2026-04-21 12:37 7.48119 121.95331 6002 ft 162 kts 167°
2026-04-21 12:37 7.47010 121.95535 6002 ft 162 kts 167°
2026-04-21 12:37 7.45897 121.95740 6003 ft 163 kts 167°
2026-04-21 12:37 7.44784 121.95944 6001 ft 163 kts 167°
2026-04-21 12:38 7.43669 121.96148 6002 ft 163 kts 167°
2026-04-21 12:38 7.42555 121.96352 6003 ft 163 kts 167°
2026-04-21 12:38 7.41441 121.96557 6001 ft 163 kts 167°
2026-04-21 12:38 7.40326 121.96762 6001 ft 163 kts 167°
2026-04-21 12:39 7.39216 121.96965 6000 ft 163 kts 167°
2026-04-21 12:39 7.38108 121.97195 5999 ft 162 kts 164°
2026-04-21 12:39 7.37016 121.97475 6001 ft 162 kts 162°
2026-04-21 12:39 7.35929 121.97769 6002 ft 162 kts 162°
2026-04-21 12:40 7.34836 121.98049 6000 ft 162 kts 165°
2026-04-21 12:40 7.33721 121.98246 6001 ft 163 kts 169°
2026-04-21 12:40 7.32601 121.98418 6001 ft 163 kts 168°
2026-04-21 12:40 7.31486 121.98612 6000 ft 163 kts 167°
2026-04-21 12:41 7.30374 121.98820 6002 ft 163 kts 167°
2026-04-21 12:41 7.29260 121.99024 6001 ft 163 kts 167°
2026-04-21 12:41 7.28143 121.99219 5999 ft 163 kts 168°
2026-04-21 12:41 7.27027 121.99414 6000 ft 163 kts 168°
2026-04-21 12:42 7.25974 121.99600 6000 ft 162 kts 167°
2026-04-21 12:42 7.24861 121.99799 6002 ft 163 kts 167°
2026-04-21 12:42 7.23752 121.99998 5982 ft 161 kts 167°
2026-04-21 12:42 7.22655 122.00192 5988 ft 160 kts 167°
2026-04-21 12:43 7.21560 122.00384 5985 ft 160 kts 168°
2026-04-21 12:43 7.20479 122.00577 5936 ft 155 kts 167°
2026-04-21 12:43 7.19426 122.00765 5954 ft 153 kts 167°
2026-04-21 12:43 7.18381 122.00950 5992 ft 156 kts 167°
2026-04-21 12:44 7.17305 122.01142 5993 ft 158 kts 168°
2026-04-21 12:44 7.16225 122.01331 5971 ft 157 kts 168°
2026-04-21 12:44 7.15156 122.01522 5986 ft 156 kts 167°
2026-04-21 12:44 7.14078 122.01721 6006 ft 158 kts 163°
2026-04-21 12:45 7.13238 122.02357 6011 ft 153 kts 115°
2026-04-21 12:45 7.13057 122.03386 5996 ft 149 kts 89°
2026-04-21 12:45 7.13070 122.04423 5975 ft 147 kts 86°
2026-04-21 12:45 7.13119 122.05456 5862 ft 147 kts 85°
2026-04-21 12:46 7.13186 122.06482 5738 ft 146 kts 84°
2026-04-21 12:46 7.13260 122.07502 5613 ft 147 kts 85°
2026-04-21 12:46 7.13288 122.08536 5491 ft 149 kts 91°
2026-04-21 12:46 7.13170 122.09583 5373 ft 152 kts 101°
2026-04-21 12:47 7.12888 122.10611 5256 ft 153 kts 110°
2026-04-21 12:47 7.12452 122.11598 5136 ft 155 kts 114°
2026-04-21 12:47 7.11930 122.12548 5015 ft 156 kts 118°
2026-04-21 12:47 7.11355 122.13473 4883 ft 156 kts 121°
2026-04-21 12:48 7.10759 122.14389 4766 ft 157 kts 121°
2026-04-21 12:48 7.10152 122.15300 4640 ft 157 kts 122°
2026-04-21 12:48 7.09504 122.16190 4518 ft 158 kts 128°
2026-04-21 12:48 7.08775 122.17023 4393 ft 159 kts 130°
2026-04-21 12:49 7.08022 122.17836 4265 ft 159 kts 131°
2026-04-21 12:49 7.07261 122.18644 4144 ft 159 kts 132°
2026-04-21 12:49 7.06497 122.19453 4016 ft 159 kts 132°
2026-04-21 12:49 7.05732 122.20260 3890 ft 159 kts 132°
2026-04-21 12:50 7.04971 122.21073 3761 ft 159 kts 132°
2026-04-21 12:50 7.04192 122.21866 3633 ft 160 kts 137°
2026-04-21 12:50 7.03350 122.22579 3475 ft 162 kts 140°
2026-04-21 12:50 7.02459 122.23287 3298 ft 164 kts 142°
2026-04-21 12:51 7.01554 122.23991 3122 ft 165 kts 142°
2026-04-21 12:51 7.00602 122.24637 2942 ft 166 kts 149°
2026-04-21 12:51 6.99571 122.25153 2768 ft 166 kts 158°
2026-04-21 12:51 6.98484 122.25529 2623 ft 164 kts 165°
2026-04-21 12:52 6.97386 122.25778 2554 ft 159 kts 169°
2026-04-21 12:52 6.96307 122.25935 2523 ft 154 kts 173°
2026-04-21 12:52 6.95259 122.26023 2508 ft 149 kts 177°
2026-04-21 12:52 6.94233 122.26057 2502 ft 146 kts 179°
2026-04-21 12:53 6.93232 122.26050 2498 ft 142 kts 189°
2026-04-21 12:53 6.92293 122.25783 2496 ft 140 kts 211°
2026-04-21 12:53 6.91719 122.25027 2502 ft 136 kts 249°
2026-04-21 12:53 6.91471 122.24135 2503 ft 130 kts 259°
2026-04-21 12:54 6.91356 122.23246 2501 ft 127 kts 265°
2026-04-21 12:54 6.91304 122.22369 2503 ft 125 kts 269°
2026-04-21 12:54 6.91332 122.21500 2520 ft 123 kts 275°
2026-04-21 12:54 6.91411 122.20653 2560 ft 121 kts 276°
2026-04-21 12:55 6.91489 122.19809 2517 ft 124 kts 275°
2026-04-21 12:55 6.91550 122.18932 2398 ft 125 kts 273°
2026-04-21 12:55 6.91581 122.18074 2349 ft 120 kts 270°
2026-04-21 12:55 6.91564 122.17244 2255 ft 118 kts 269°
2026-04-21 12:56 6.91565 122.16487 2134 ft 100 kts 271°
2026-04-21 12:56 6.91598 122.15801 1917 ft 97 kts 275°
2026-04-21 12:56 6.91650 122.15130 1728 ft 95 kts 274°
2026-04-21 12:56 6.91688 122.14460 1594 ft 97 kts 272°
2026-04-21 12:57 6.91712 122.13778 1485 ft 96 kts 272°
2026-04-21 12:57 6.91754 122.13109 1356 ft 97 kts 274°
2026-04-21 12:57 6.91805 122.12428 1214 ft 98 kts 274°
2026-04-21 12:57 6.91844 122.11746 1073 ft 98 kts 275°
2026-04-21 12:58 6.91893 122.11049 898 ft 103 kts 274°
2026-04-21 12:58 6.91942 122.10316 721 ft 105 kts 274°
2026-04-21 12:58 6.91990 122.09582 580 ft 104 kts 274°
2026-04-21 12:58 6.92043 122.08850 431 ft 105 kts 274°
2026-04-21 12:59 6.92094 122.08127 284 ft 101 kts 274°
2026-04-21 12:59 6.92140 122.07435 136 ft 97 kts 274°
2026-04-21 12:59 6.92187 122.06793 36 ft 79 kts 274°
2026-04-21 12:59 6.92216 122.06361 30 ft 40 kts 275°
2026-04-21 13:00 6.92217 122.06267 31 ft 7 kts 241°
2026-04-21 13:00 6.92177 122.06253 31 ft 8 kts 182°
2026-04-21 13:00 6.92134 122.06240 31 ft 7 kts 257°
2026-04-21 13:00 6.92138 122.06190 31 ft 6 kts 273°
2026-04-21 13:01 6.92139 122.06151 31 ft 2 kts 231°
2026-04-21 13:01 6.92136 122.06151 31 ft 1 kts 155°
2026-04-21 13:01 6.92108 122.06164 31 ft 6 kts 155°
2026-04-21 13:01 6.92072 122.06180 30 ft 6 kts 157°
2026-04-21 13:02 6.92056 122.06188 30 ft 2 kts 154°
2026-04-21 13:02 6.92047 122.06192 30 ft 0 kts 154°